Hourly Weather Otoka

Today, 24 July, Saturday

Time Temperature Precipitation Wind Pressure Humidity
00:00 +20°C° 0 mm 1 mps 744 mmHg 72%
01:00 +19°C° 0 mm 1 mps 744 mmHg 73%
02:00 +19°C° 0 mm 1 mps 743 mmHg 73%
03:00 +19°C° 0 mm 1 mps 743 mmHg 74%
04:00 +19°C° 0 mm 1 mps 743 mmHg 74%
05:00 +20°C° 0 mm 1 mps 743 mmHg 74%
06:00 +20°C° 0 mm 1 mps 743 mmHg 75%
07:00 +21°C° 0 mm 1 mps 743 mmHg 74%
08:00 +22°C° 0 mm 1 mps 743 mmHg 70%
09:00 +23°C° 0 mm 2 mps 743 mmHg 67%
10:00 +24°C° 0 mm 2 mps 744 mmHg 63%
11:00 +25°C° 0 mm 2 mps 743 mmHg 59%
12:00 +26°C° 0 mm 2 mps 743 mmHg 55%
13:00 +27°C° 0 mm 2 mps 743 mmHg 51%
14:00 +27°C° 0 mm 2 mps 743 mmHg 51%
15:00 +28°C° 0 mm 2 mps 743 mmHg 52%
16:00 +28°C° 0 mm 2 mps 743 mmHg 52%
17:00 +26°C° 0 mm 2 mps 743 mmHg 58%
18:00 +25°C° 0 mm 3 mps 742 mmHg 64%
19:00 +22°C° 0 mm 3 mps 742 mmHg 70%
20:00 +21°C° 0 mm 3 mps 742 mmHg 70%
21:00 +21°C° 0 mm 3 mps 742 mmHg 69%
22:00 +20°C° 0 mm 3 mps 742 mmHg 68%
23:00 +20°C° 0 mm 3 mps 742 mmHg 67%

Tomorrow, 25 July, Sunday

Time Temperature Precipitation Wind Pressure Humidity
00:00 +20°C° 0 mm 3 mps 742 mmHg 66%
01:00 +20°C° 0 mm 3 mps 742 mmHg 65%
02:00 +19°C° 0 mm 3 mps 742 mmHg 65%
03:00 +19°C° 0 mm 2 mps 742 mmHg 66%
04:00 +19°C° 0 mm 2 mps 742 mmHg 66%
05:00 +20°C° 0 mm 3 mps 742 mmHg 66%
06:00 +20°C° 0 mm 3 mps 742 mmHg 66%
07:00 +21°C° 0 mm 3 mps 743 mmHg 66%
08:00 +24°C° 0 mm 3 mps 743 mmHg 61%
09:00 +26°C° 0 mm 4 mps 743 mmHg 57%
10:00 +27°C° 0 mm 4 mps 743 mmHg 52%
11:00 +28°C° 0 mm 4 mps 743 mmHg 48%
12:00 +29°C° 0 mm 4 mps 743 mmHg 45%
13:00 +30°C° 0 mm 4 mps 743 mmHg 41%
14:00 +30°C° 0 mm 4 mps 742 mmHg 44%
15:00 +30°C° 0 mm 4 mps 742 mmHg 46%
16:00 +29°C° 0 mm 4 mps 742 mmHg 49%
17:00 +28°C° 0 mm 4 mps 742 mmHg 53%
18:00 +27°C° 0 mm 4 mps 742 mmHg 56%
19:00 +25°C° 0 mm 4 mps 742 mmHg 60%
20:00 +25°C° 0 mm 4 mps 742 mmHg 61%
21:00 +23°C° 0 mm 4 mps 742 mmHg 63%
22:00 +23°C° 0 mm 4 mps 742 mmHg 65%
23:00 +22°C° 0 mm 3 mps 742 mmHg 67%

Day after tomorrow, 26 July, Monday

Time Temperature Precipitation Wind Pressure Humidity
00:00 +22°C° 0 mm 3 mps 742 mmHg 69%
01:00 +21°C° 0 mm 3 mps 742 mmHg 71%
02:00 +21°C° 0 mm 3 mps 742 mmHg 71%
03:00 +20°C° 0 mm 4 mps 741 mmHg 71%
04:00 +20°C° 0 mm 4 mps 741 mmHg 70%
05:00 +21°C° 0 mm 4 mps 741 mmHg 69%
06:00 +22°C° 0 mm 4 mps 741 mmHg 68%
07:00 +23°C° 0 mm 4 mps 742 mmHg 67%
08:00 +26°C° 0 mm 4 mps 742 mmHg 62%
09:00 +27°C° 0 mm 5 mps 742 mmHg 57%
10:00 +29°C° 0 mm 6 mps 742 mmHg 52%
11:00 +29°C° 0 mm 5 mps 742 mmHg 51%
12:00 +30°C° 0 mm 5 mps 742 mmHg 50%
13:00 +30°C° 0 mm 5 mps 742 mmHg 49%
14:00 +30°C° 0 mm 4 mps 741 mmHg 51%
15:00 +30°C° 0 mm 4 mps 741 mmHg 53%
16:00 +30°C° 0 mm 4 mps 741 mmHg 56%
17:00 +29°C° 0 mm 3 mps 741 mmHg 62%
18:00 +27°C° 0 mm 2 mps 741 mmHg 69%
19:00 +25°C° 0 mm 2 mps 741 mmHg 75%
20:00 +24°C° 0.1 mm 1 mps 741 mmHg 78%
21:00 +23°C° 0.1 mm 1 mps 742 mmHg 82%
22:00 +22°C° 0.1 mm 1 mps 742 mmHg 85%
23:00 +22°C° 0.1 mm 1 mps 742 mmHg 85%

27 July, Tuesday

Time Temperature Precipitation Wind Pressure Humidity
00:00 +22°C° 0.1 mm 1 mps 742 mmHg 86%
01:00 +22°C° 0.1 mm 1 mps 741 mmHg 86%
02:00 +21°C° 0.1 mm 1 mps 742 mmHg 87%
03:00 +21°C° 0.1 mm 1 mps 742 mmHg 88%
04:00 +19°C° 0.1 mm 0 mps 742 mmHg 88%
05:00 +22°C° 0.3 mm 1 mps 742 mmHg 86%
06:00 +23°C° 0.3 mm 1 mps 742 mmHg 83%
07:00 +24°C° 0.3 mm 1 mps 742 mmHg 80%
08:00 +25°C° 0 mm 1 mps 742 mmHg 74%
09:00 +27°C° 0 mm 2 mps 743 mmHg 68%
10:00 +28°C° 0 mm 2 mps 743 mmHg 62%
11:00 +29°C° 0 mm 2 mps 743 mmHg 59%
12:00 +30°C° 0 mm 2 mps 743 mmHg 57%
13:00 +31°C° 0 mm 2 mps 742 mmHg 54%
14:00 +31°C° 0 mm 2 mps 742 mmHg 55%
15:00 +30°C° 0 mm 2 mps 742 mmHg 57%
16:00 +30°C° 0 mm 2 mps 742 mmHg 58%
17:00 +27°C° 3.1 mm 2 mps 742 mmHg 69%
18:00 +24°C° 3.1 mm 2 mps 742 mmHg 79%
19:00 +20°C° 3.1 mm 2 mps 742 mmHg 90%
20:00 +19°C° 0.3 mm 2 mps 742 mmHg 90%
21:00 +19°C° 0.3 mm 2 mps 742 mmHg 89%
22:00 +20°C° 0.3 mm 1 mps 742 mmHg 89%
23:00 +20°C° 0.1 mm 1 mps 742 mmHg 88%

28 July, Wednesday

Time Temperature Precipitation Wind Pressure Humidity
00:00 +19°C° 0.1 mm 1 mps 742 mmHg 88%
01:00 +19°C° 0.1 mm 1 mps 742 mmHg 87%
02:00 +19°C° 0.1 mm 1 mps 742 mmHg 88%
03:00 +19°C° 0.1 mm 1 mps 742 mmHg 88%
04:00 +19°C° 0.1 mm 1 mps 742 mmHg 89%
05:00 +20°C° 0 mm 1 mps 742 mmHg 85%
06:00 +22°C° 0 mm 1 mps 742 mmHg 81%
07:00 +23°C° 0 mm 1 mps 742 mmHg 78%
08:00 +23°C° 0 mm 0 mps 742 mmHg 72%
09:00 +25°C° 0 mm 0 mps 742 mmHg 67%
10:00 +27°C° 0 mm 0 mps 742 mmHg 62%
11:00 +29°C° 0 mm 1 mps 742 mmHg 59%
12:00 +30°C° 0 mm 1 mps 741 mmHg 56%
13:00 +31°C° 0 mm 1 mps 741 mmHg 54%
14:00 +31°C° 0.1 mm 1 mps 741 mmHg 55%
15:00 +31°C° 0.1 mm 1 mps 741 mmHg 57%
16:00 +30°C° 0.1 mm 2 mps 740 mmHg 58%
17:00 +28°C° 1.1 mm 1 mps 740 mmHg 67%
18:00 +26°C° 1.1 mm 1 mps 740 mmHg 76%
19:00 +24°C° 1.1 mm 1 mps 740 mmHg 85%
20:00 +23°C° 0.8 mm 2 mps 740 mmHg 88%
21:00 +21°C° 0.8 mm 2 mps 741 mmHg 91%
22:00 +21°C° 0.8 mm 3 mps 741 mmHg 94%
23:00 +20°C° 0.1 mm 3 mps 741 mmHg 94%

29 July, Thursday

Time Temperature Precipitation Wind Pressure Humidity
00:00 +20°C° 0.1 mm 3 mps 742 mmHg 95%
01:00 +19°C° 0.1 mm 3 mps 742 mmHg 95%
02:00 +19°C° 0 mm 3 mps 742 mmHg 96%
03:00 +19°C° 0 mm 2 mps 742 mmHg 97%
04:00 +18°C° 0 mm 2 mps 743 mmHg 98%
05:00 +19°C° 0 mm 2 mps 743 mmHg 94%
06:00 +20°C° 0 mm 3 mps 743 mmHg 91%
07:00 +21°C° 0 mm 3 mps 743 mmHg 87%
08:00 +22°C° 0 mm 3 mps 744 mmHg 81%
09:00 +24°C° 0 mm 3 mps 744 mmHg 74%
10:00 +25°C° 0 mm 3 mps 744 mmHg 68%
11:00 +26°C° 0 mm 2 mps 744 mmHg 64%
12:00 +27°C° 0 mm 2 mps 743 mmHg 59%
13:00 +28°C° 0 mm 2 mps 743 mmHg 55%
14:00 +28°C° 0 mm 1 mps 743 mmHg 54%
15:00 +28°C° 0 mm 1 mps 743 mmHg 54%
16:00 +29°C° 0 mm 1 mps 743 mmHg 53%
17:00 +27°C° 0 mm 1 mps 742 mmHg 60%
18:00 +26°C° 0 mm 1 mps 742 mmHg 67%
19:00 +24°C° 0 mm 1 mps 742 mmHg 73%
20:00 +23°C° 0 mm 2 mps 742 mmHg 76%
21:00 +21°C° 0 mm 2 mps 742 mmHg 79%
22:00 +20°C° 0 mm 2 mps 742 mmHg 82%
23:00 +20°C° 0 mm 2 mps 742 mmHg 83%
Show more